Погода в Кафтанчикове

Россия / Томская область     56°20′38″N   84°52′02″E
темп.,
°C
ветер,
м/с
пор.,
м/с
влажн.,
%
обл.,
%
осадки,
мм/ч
давл.,
гПа
погр.,
м
12 апреля, пн
пн1201:00+1зюз289998 0.0 1036260
04:00+1юз3797100 0.0 1035329
07:00+1юз3893100 0.0 1034351
10:00+2юз41185100 0.0 1031440
13:00+5юз41275100 0.0 1029581
16:00+6зюз51276100 0.0 1027722
19:00+4зюз41184100 0.0 1027552
22:00+2з31095100 2.4 1026431
13 апреля, вт
вт1301:00+2зсз3998100 4.4 1026539
04:00+1з2498100 0.0 102784
07:000сз39947 0.0 1029355
10:00+2сз36806 0.0 1029578
13:00+5зсз476587 0.0 10291572
16:00+6зсз476278 0.1 10281861
19:00+5зсз41069100 0.4 1029671
22:00+3зсз3985100 0.2 1030441
14 апреля, ср
ср1401:00+1з310905 0.2 1030293
04:000з399292 0.0 1029293
07:000з3109361 0.0 1030357
10:00+4з477792 0.0 1029601
13:00+5зюз4883100 0.1 1027878
16:00+4зюз51297100 0.8 10251002
19:00+6зюз51275100 1.3 1022884
22:00+5з41183100 0.1 1022536
15 апреля, чт
чт1501:00+5з2790100 0.2 1022269
04:00+4з1297100 0.1 102252
07:00+3сз1197100 0.1 102313
10:00+4ю1197100 0.1 102328
13:00+5ююз1295100 0.2 1022240
16:00+7юз3588100 0.0 1021574
19:00+6юз279690 0.1 1019358
22:00+5ююз269491 0.0 1018129
16 апреля, пт
пт1601:00+6юз4149096 0.1 1016352
04:00+6юз4119594 0.3 1015300
07:00+5юз31196100 0.3 1015253
10:00+10зюз497957 0.0 1015403
13:00+15зюз585985 0.0 10141209
16:00+17зюз485322 0.0 10131915
19:00+15зюз49595 0.1 1012500
22:00+10сз128573 0.0 101343